Regional Weather Roundup
Issued by NWS

Home | Current Version | Previous Version | Text Only | Print | Product List | Glossary On
Versions: 1 2 3 4 5 6 7 8 9 10 11 12 13 14 15 16 17 18 19 20 21 22 23 24 25 26 27 28 29 30 31 32 33 34 35 36 37 38 39 40 41 42 43 44 45 46 47 48 49 50
000
ASUS45 KREV 040110
RWRNV
NEVADA REGIONAL WEATHER ROUNDUP
NATIONAL WEATHER SERVICE RENO NV
600 PM PDT SUN MAY 03 2015

NOTE: "FAIR" INDICATES FEW OR NO CLOUDS BELOW 12,000 FEET WITH NO
SIGNIFICANT WEATHER AND/OR OBSTRUCTIONS TO VISIBILITY.

NVZ001-003-004-040200-
WESTERN NEVADA

CITY           SKY/WX    TMP DP  RH WIND       PRES   REMARKS
RENO           MOSUNNY   77  25  14 W20       29.83R
CARSON CITY    FAIR      73  25  16 W15       29.87S
MINDEN         FAIR      72  32  23 W22G29    29.88
SLIDE MTN        N/A     50  28  43 W20         N/A
PYRAMID LAKE     N/A     75 N/A N/A N5          N/A
FALLON         PTSUNNY   81  23  11 N6        29.78S
LOVELOCK       SUNNY     81  22  11 NW16G22   29.78S
HAWTHORNE      MOSUNNY   68  34  28 SW28G33   29.88R
$$

NVZ002-CAZ072-073-040200-
NORTHERN AND CENTRAL SIERRA

CITY           SKY/WX    TMP DP  RH WIND       PRES   REMARKS
S. LAKE TAHOE  SUNNY     64  30  27 VRB3      29.97S
TRUCKEE        MOSUNNY   64  28  25 SW10G16   29.97S
SQUAW VLY 8000   N/A     50  28  43 W6          N/A
BLUE CANYON    SUNNY     62  25  24 VRB7      29.99S
MAMMOTH LAKES  FAIR      61  27  27 W8        29.99S
BRIDGEPORT     FAIR      62  27  26 SW10      29.96R
$$

NVZ030-031-036-040200-
NORTHERN NEVADA

CITY           SKY/WX    TMP DP  RH WIND       PRES   REMARKS
ELKO           CLOUDY    61  37  41 NW10      29.91S
WINNEMUCCA     NOT AVBL
WENDOVER       CLOUDY    72  34  25 N16       29.85R
$$

NVZ035-037-040200-
CENTRAL NEVADA

CITY           SKY/WX    TMP DP  RH WIND       PRES   REMARKS
ELY            MOSUNNY   69  18  14 S9        29.90S
EUREKA           N/A     65  30  27 NE8       29.92F
$$

NVZ013-014-040200-
SOUTH CENTRAL NEVADA

CITY           SKY/WX    TMP DP  RH WIND       PRES   REMARKS
TONOPAH        NOT AVBL
$$

NVZ017-020-022-040200-
SOUTHERN NEVADA

CITY           SKY/WX    TMP DP  RH WIND       PRES   REMARKS
LAS VEGAS      MOSUNNY   88  28  11 SW9       29.67F
N. LAS VEGAS   FAIR      88  25  10 S10G17    29.70F
NELLIS AFB     PTSUNNY   88  35  15 S14       29.67F
HENDERSON      MOSUNNY   88  32  13 W9        29.74F
MERCURY        SUNNY     82  23  11 SW18G26   29.76F
$$



USA.gov is the U.S. government's official web portal to all federal, state and local government web resources and services.